Time,TemperatureF,DewpointF,PressureIn,WindDirection,WindDirectionDegrees,WindSpeedMPH,WindSpeedGustMPH,Humidity,HourlyPrecipIn,Conditions,Clouds,dailyrainin,SoftwareType,DateUTC
2013-09-25 00:00:00,56.3,53.7,29.51,East,90,0.0,0.0,91,0.00,RA,SKC,0.00,WeatherDisplay:10.37,2013-09-24 23:00:00,
2013-09-25 00:05:00,56.3,53.7,29.51,ESE,112,0.0,0.0,91,0.00,RA,SKC,0.00,WeatherDisplay:10.37,2013-09-24 23:05:00,
2013-09-25 00:10:00,56.3,53.7,29.51,ESE,112,0.0,0.0,91,0.00,RA,SKC,0.00,WeatherDisplay:10.37,2013-09-24 23:10:00,
2013-09-25 00:15:00,56.3,53.7,29.51,ESE,112,0.0,0.0,91,0.00,CLR,SKC,0.00,WeatherDisplay:10.37,2013-09-24 23:15:00,
2013-09-25 00:20:00,56.3,53.7,29.51,ESE,112,0.0,0.0,91,0.00,CLR,SKC,0.00,WeatherDisplay:10.37,2013-09-24 23:20:00,
2013-09-25 00:25:00,56.1,53.5,29.51,ESE,112,0.0,0.0,91,0.00,CLR,SKC,0.00,WeatherDisplay:10.37,2013-09-24 23:25:00,
2013-09-25 00:30:00,56.1,53.5,29.51,ENE,68,0.0,0.0,91,0.00,CLR,SKC,0.00,WeatherDisplay:10.37,2013-09-24 23:30:00,
2013-09-25 00:35:00,56.1,53.5,29.51,ENE,71,0.0,0.0,91,0.00,CLR,SKC,0.00,WeatherDisplay:10.37,2013-09-24 23:35:00,
2013-09-25 00:40:00,56.1,53.5,29.51,ENE,68,0.0,0.0,91,0.00,CLR,SKC,0.00,WeatherDisplay:10.37,2013-09-24 23:40:00,
2013-09-25 00:45:00,56.1,53.8,29.51,ENE,68,0.0,0.0,92,0.00,CLR,SKC,0.00,WeatherDisplay:10.37,2013-09-24 23:45:00,
2013-09-25 00:50:00,56.1,53.8,29.51,East,90,0.0,0.0,92,0.00,CLR,SKC,0.00,WeatherDisplay:10.37,2013-09-24 23:50:00,
2013-09-25 00:55:00,56.1,53.8,29.51,East,89,0.0,0.0,92,0.00,CLR,SKC,0.00,WeatherDisplay:10.37,2013-09-24 23:55:00,
2013-09-25 01:00:00,56.1,53.8,29.50,East,90,0.0,0.0,92,0.00,CLR,SKC,0.00,WeatherDisplay:10.37,2013-09-25 00:00:00,
2013-09-25 01:05:00,56.1,53.8,29.50,East,95,0.0,0.0,92,0.00,CLR,SKC,0.00,WeatherDisplay:10.37,2013-09-25 00:05:00,
2013-09-25 01:10:00,56.1,53.8,29.50,East,90,0.0,0.0,92,0.00,CLR,SKC,0.00,WeatherDisplay:10.37,2013-09-25 00:10:00,
2013-09-25 01:15:00,56.1,53.8,29.50,ESE,112,0.0,0.0,92,0.00,CLR,SKC,0.00,WeatherDisplay:10.37,2013-09-25 00:15:00,
2013-09-25 01:20:00,55.9,53.6,29.49,ESE,112,0.0,0.0,92,0.00,CLR,SKC,0.00,WeatherDisplay:10.37,2013-09-25 00:20:00,
2013-09-25 01:25:00,55.9,53.6,29.49,ESE,107,0.0,0.0,92,0.00,CLR,SKC,0.00,WeatherDisplay:10.37,2013-09-25 00:25:00,
2013-09-25 01:30:00,55.9,53.6,29.49,ESE,112,0.0,0.0,92,0.00,CLR,SKC,0.00,WeatherDisplay:10.37,2013-09-25 00:30:00,
2013-09-25 01:35:00,55.9,53.6,29.49,East,90,0.0,0.0,92,0.00,CLR,SKC,0.00,WeatherDisplay:10.37,2013-09-25 00:35:00,
2013-09-25 01:40:00,55.9,53.6,29.49,East,90,0.0,0.0,92,0.00,CLR,SKC,0.00,WeatherDisplay:10.37,2013-09-25 00:40:00,
2013-09-25 01:45:00,55.9,53.6,29.49,East,96,0.0,0.0,92,0.00,CLR,SKC,0.00,WeatherDisplay:10.37,2013-09-25 00:45:00,
2013-09-25 01:50:00,55.9,53.6,29.49,East,90,0.0,0.0,92,0.00,CLR,SKC,0.00,WeatherDisplay:10.37,2013-09-25 00:50:00,
2013-09-25 01:55:00,55.9,53.6,29.49,East,90,0.0,0.0,92,0.00,CLR,SKC,0.00,WeatherDisplay:10.37,2013-09-25 00:55:00,
2013-09-25 02:00:00,55.9,53.6,29.49,East,90,0.0,0.0,92,0.00,CLR,SKC,0.00,WeatherDisplay:10.37,2013-09-25 01:00:00,
2013-09-25 02:05:00,55.9,53.6,29.49,East,90,0.0,0.0,92,0.00,CLR,SKC,0.00,WeatherDisplay:10.37,2013-09-25 01:05:00,
2013-09-25 02:10:00,55.9,53.6,29.48,East,90,0.0,0.0,92,0.00,CLR,SKC,0.00,WeatherDisplay:10.37,2013-09-25 01:10:00,
2013-09-25 02:15:00,55.9,53.6,29.48,East,90,0.0,0.0,92,0.00,CLR,SKC,0.00,WeatherDisplay:10.37,2013-09-25 01:15:00,
2013-09-25 02:20:00,55.9,53.6,29.48,East,90,0.0,0.0,92,0.00,CLR,SKC,0.00,WeatherDisplay:10.37,2013-09-25 01:20:00,
2013-09-25 02:25:00,55.9,53.6,29.48,East,90,0.0,0.0,92,0.00,CLR,SKC,0.00,WeatherDisplay:10.37,2013-09-25 01:25:00,
2013-09-25 02:30:00,55.9,53.6,29.48,East,90,0.0,0.0,92,0.00,CLR,SKC,0.00,WeatherDisplay:10.37,2013-09-25 01:30:00,
2013-09-25 02:35:00,55.9,53.6,29.48,East,90,0.0,0.0,92,0.00,CLR,SKC,0.00,WeatherDisplay:10.37,2013-09-25 01:35:00,
2013-09-25 02:40:00,55.8,53.5,29.48,East,90,0.0,0.0,92,0.00,CLR,SKC,0.00,WeatherDisplay:10.37,2013-09-25 01:40:00,
2013-09-25 02:45:00,55.8,53.5,29.48,ESE,103,0.0,0.0,92,0.00,CLR,SKC,0.00,WeatherDisplay:10.37,2013-09-25 01:45:00,
2013-09-25 02:50:00,55.9,53.6,29.47,ESE,112,0.0,0.0,92,0.00,CLR,SKC,0.00,WeatherDisplay:10.37,2013-09-25 01:50:00,
2013-09-25 02:55:00,55.8,53.5,29.47,ESE,112,0.0,0.0,92,0.00,CLR,SKC,0.00,WeatherDisplay:10.37,2013-09-25 01:55:00,
2013-09-25 03:00:00,55.8,53.5,29.47,East,99,0.0,0.0,92,0.00,CLR,SKC,0.00,WeatherDisplay:10.37,2013-09-25 02:00:00,
2013-09-25 03:05:00,55.8,53.5,29.47,East,90,0.0,0.0,92,0.00,CLR,SKC,0.00,WeatherDisplay:10.37,2013-09-25 02:05:00,
2013-09-25 03:10:00,55.8,53.5,29.47,East,90,0.0,0.0,92,0.00,CLR,SKC,0.00,WeatherDisplay:10.37,2013-09-25 02:10:00,
2013-09-25 03:15:00,55.8,53.5,29.46,East,90,0.0,0.0,92,0.00,CLR,SKC,0.00,WeatherDisplay:10.37,2013-09-25 02:15:00,
2013-09-25 03:20:00,55.8,53.5,29.47,East,90,0.0,0.0,92,0.00,CLR,SKC,0.00,WeatherDisplay:10.37,2013-09-25 02:20:00,
2013-09-25 03:25:00,55.8,53.5,29.46,East,90,0.0,0.0,92,0.00,CLR,SKC,0.00,WeatherDisplay:10.37,2013-09-25 02:25:00,
2013-09-25 03:30:00,55.8,53.5,29.46,East,90,0.0,0.0,92,0.00,CLR,SKC,0.00,WeatherDisplay:10.37,2013-09-25 02:30:00,
2013-09-25 03:35:00,55.8,53.5,29.46,East,90,0.0,0.0,92,0.00,CLR,SKC,0.00,WeatherDisplay:10.37,2013-09-25 02:35:00,
2013-09-25 03:40:00,55.8,53.5,29.46,East,90,0.0,0.0,92,0.00,CLR,SKC,0.00,WeatherDisplay:10.37,2013-09-25 02:40:00,
2013-09-25 03:45:00,55.6,53.3,29.46,East,90,0.0,0.0,92,0.00,CLR,SKC,0.00,WeatherDisplay:10.37,2013-09-25 02:45:00,
2013-09-25 03:50:00,55.6,53.3,29.46,East,90,0.0,0.0,92,0.00,CLR,SKC,0.00,WeatherDisplay:10.37,2013-09-25 02:50:00,
2013-09-25 03:55:00,55.6,53.3,29.46,East,90,0.0,0.0,92,0.00,CLR,SKC,0.00,WeatherDisplay:10.37,2013-09-25 02:55:00,
2013-09-25 04:00:00,55.6,53.3,29.46,East,90,0.0,0.0,92,0.00,CLR,SKC,0.00,WeatherDisplay:10.37,2013-09-25 03:00:00,
2013-09-25 04:05:00,55.6,53.3,29.46,East,90,0.0,0.0,92,0.00,CLR,SKC,0.00,WeatherDisplay:10.37,2013-09-25 03:05:00,
2013-09-25 04:10:00,55.6,53.3,29.46,East,90,0.0,0.0,92,0.00,CLR,SKC,0.00,WeatherDisplay:10.37,2013-09-25 03:10:00,
2013-09-25 04:15:00,55.6,53.3,29.46,East,90,0.0,0.0,92,0.00,CLR,SKC,0.00,WeatherDisplay:10.37,2013-09-25 03:15:00,
2013-09-25 04:20:00,55.6,53.3,29.46,East,90,0.0,0.0,92,0.00,CLR,SKC,0.00,WeatherDisplay:10.37,2013-09-25 03:20:00,
2013-09-25 04:25:00,55.6,53.3,29.45,East,90,0.0,0.0,92,0.00,CLR,SKC,0.00,WeatherDisplay:10.37,2013-09-25 03:25:00,
2013-09-25 04:30:00,55.8,53.5,29.45,East,90,0.0,0.0,92,0.00,CLR,SKC,0.00,WeatherDisplay:10.37,2013-09-25 03:30:00,
2013-09-25 04:35:00,55.8,53.5,29.45,East,90,0.0,0.0,92,0.00,CLR,SKC,0.00,WeatherDisplay:10.37,2013-09-25 03:35:00,
2013-09-25 04:40:00,55.8,53.5,29.45,East,79,0.0,0.0,92,0.00,CLR,SKC,0.00,WeatherDisplay:10.37,2013-09-25 03:40:00,
2013-09-25 04:45:00,55.8,53.5,29.45,East,80,0.0,0.0,92,0.00,CLR,SKC,0.00,WeatherDisplay:10.37,2013-09-25 03:45:00,
2013-09-25 04:50:00,55.8,53.5,29.45,East,90,0.0,0.0,92,0.00,CLR,SKC,0.00,WeatherDisplay:10.37,2013-09-25 03:50:00,
2013-09-25 04:55:00,55.8,53.5,29.45,East,90,0.0,0.0,92,0.00,CLR,SKC,0.00,WeatherDisplay:10.37,2013-09-25 03:55:00,
2013-09-25 05:00:00,55.9,53.6,29.45,East,82,0.0,0.0,92,0.00,CLR,SKC,0.00,WeatherDisplay:10.37,2013-09-25 04:00:00,
2013-09-25 05:01:00,55.9,53.6,29.45,ENE,68,0.0,0.0,92,0.00,CLR,SKC,0.00,WeatherDisplay:10.37,2013-09-25 04:01:00,
2013-09-25 05:06:00,55.8,53.5,29.45,East,90,0.0,0.0,92,0.00,CLR,SKC,0.00,WeatherDisplay:10.37,2013-09-25 04:06:00,
2013-09-25 05:11:00,55.8,53.5,29.46,East,90,0.0,0.0,92,0.00,CLR,SKC,0.00,WeatherDisplay:10.37,2013-09-25 04:11:00,
2013-09-25 05:16:00,55.8,53.5,29.46,East,90,0.0,0.0,92,0.00,CLR,SKC,0.00,WeatherDisplay:10.37,2013-09-25 04:16:00,
2013-09-25 05:21:00,55.8,53.5,29.46,ENE,68,0.0,0.0,92,0.00,CLR,SKC,0.00,WeatherDisplay:10.37,2013-09-25 04:21:00,
2013-09-25 05:26:00,55.6,53.3,29.45,ENE,68,0.0,0.0,92,0.00,CLR,SKC,0.00,WeatherDisplay:10.37,2013-09-25 04:26:00,
2013-09-25 05:31:00,55.6,53.3,29.46,ENE,68,0.0,0.0,92,0.00,CLR,SKC,0.00,WeatherDisplay:10.37,2013-09-25 04:31:00,
2013-09-25 05:36:00,55.6,53.3,29.45,East,90,0.0,0.0,92,0.00,CLR,SKC,0.00,WeatherDisplay:10.37,2013-09-25 04:36:00,
2013-09-25 05:41:00,55.6,53.3,29.45,East,90,0.0,0.0,92,0.00,CLR,SKC,0.00,WeatherDisplay:10.37,2013-09-25 04:41:00,
2013-09-25 05:46:00,55.6,53.3,29.45,ENE,68,0.0,0.0,92,0.00,CLR,SKC,0.00,WeatherDisplay:10.37,2013-09-25 04:46:00,
2013-09-25 05:51:00,55.6,53.3,29.45,East,90,0.0,0.0,92,0.00,CLR,SKC,0.00,WeatherDisplay:10.37,2013-09-25 04:51:00,
2013-09-25 05:56:00,55.6,53.3,29.45,East,90,0.0,0.0,92,0.00,CLR,SKC,0.00,WeatherDisplay:10.37,2013-09-25 04:56:00,
2013-09-25 06:01:00,55.6,53.3,29.45,East,90,0.0,0.0,92,0.00,CLR,SKC,0.00,WeatherDisplay:10.37,2013-09-25 05:01:00,
2013-09-25 06:06:00,55.6,53.3,29.45,East,90,0.0,0.0,92,0.00,CLR,SKC,0.00,WeatherDisplay:10.37,2013-09-25 05:06:00,
2013-09-25 06:11:00,55.6,53.3,29.45,East,90,0.0,0.0,92,0.00,CLR,SKC,0.00,WeatherDisplay:10.37,2013-09-25 05:11:00,
2013-09-25 06:17:00,55.6,53.3,29.46,East,90,0.0,0.0,92,0.00,CLR,SKC,0.00,WeatherDisplay:10.37,2013-09-25 05:17:00,
2013-09-25 06:22:00,55.6,53.3,29.46,ENE,68,0.0,0.0,92,0.00,CLR,SKC,0.00,WeatherDisplay:10.37,2013-09-25 05:22:00,
2013-09-25 06:27:00,55.6,53.3,29.46,East,90,0.0,0.0,92,0.00,CLR,SKC,0.00,WeatherDisplay:10.37,2013-09-25 05:27:00,
2013-09-25 06:32:00,55.6,53.3,29.45,ENE,68,0.0,0.0,92,0.00,CLR,SKC,0.00,WeatherDisplay:10.37,2013-09-25 05:32:00,
2013-09-25 06:37:00,55.6,53.3,29.46,ENE,68,0.0,0.0,92,0.00,CLR,SKC,0.00,WeatherDisplay:10.37,2013-09-25 05:37:00,
2013-09-25 06:42:00,55.6,53.3,29.45,ENE,68,0.0,0.0,92,0.00,CLR,SKC,0.00,WeatherDisplay:10.37,2013-09-25 05:42:00,
2013-09-25 06:47:00,55.6,53.3,29.45,East,90,0.0,0.0,92,0.00,CLR,SKC,0.00,WeatherDisplay:10.37,2013-09-25 05:47:00,
2013-09-25 06:52:00,55.6,53.3,29.45,East,90,0.0,0.0,92,0.00,CLR,SKC,0.00,WeatherDisplay:10.37,2013-09-25 05:52:00,
2013-09-25 06:57:00,55.6,53.3,29.45,East,90,0.0,0.0,92,0.00,CLR,SKC,0.00,WeatherDisplay:10.37,2013-09-25 05:57:00,
2013-09-25 07:02:00,55.6,53.3,29.45,ENE,68,0.0,0.0,92,0.00,CLR,SKC,0.00,WeatherDisplay:10.37,2013-09-25 06:02:00,
2013-09-25 07:07:00,55.6,53.3,29.45,ENE,68,0.0,0.0,92,0.00,CLR,SKC,0.00,WeatherDisplay:10.37,2013-09-25 06:07:00,
2013-09-25 07:12:00,55.8,53.5,29.46,East,90,0.0,0.0,92,0.00,CLR,SKC,0.00,WeatherDisplay:10.37,2013-09-25 06:12:00,
2013-09-25 07:17:00,55.8,53.5,29.46,ENE,68,0.0,0.0,92,0.00,CLR,SKC,0.00,WeatherDisplay:10.37,2013-09-25 06:17:00,
2013-09-25 07:22:00,55.8,53.5,29.46,ENE,68,0.0,0.0,92,0.00,CLR,SKC,0.00,WeatherDisplay:10.37,2013-09-25 06:22:00,
2013-09-25 07:27:00,55.8,53.5,29.46,ENE,68,0.0,0.0,92,0.00,CLR,SKC,0.00,WeatherDisplay:10.37,2013-09-25 06:27:00,
2013-09-25 07:32:00,55.8,53.5,29.46,East,90,0.0,0.0,92,0.00,CLR,SKC,0.00,WeatherDisplay:10.37,2013-09-25 06:32:00,
2013-09-25 07:37:00,55.6,53.3,29.46,ENE,68,0.0,0.0,92,0.00,CLR,SKC,0.00,WeatherDisplay:10.37,2013-09-25 06:37:00,
2013-09-25 07:42:00,55.8,53.5,29.46,ENE,68,0.0,0.0,92,0.00,CLR,SKC,0.00,WeatherDisplay:10.37,2013-09-25 06:42:00,
2013-09-25 07:47:00,55.8,53.5,29.46,East,90,0.0,0.0,92,0.00,CLR,SKC,0.00,WeatherDisplay:10.37,2013-09-25 06:47:00,
2013-09-25 07:52:00,55.8,53.5,29.46,East,90,0.0,0.0,92,0.00,CLR,SKC,0.00,WeatherDisplay:10.37,2013-09-25 06:52:00,
2013-09-25 07:57:00,55.8,53.5,29.46,ENE,68,0.0,0.0,92,0.00,CLR,SKC,0.00,WeatherDisplay:10.37,2013-09-25 06:57:00,
2013-09-25 08:02:00,55.8,53.5,29.47,East,90,0.0,0.0,92,0.00,CLR,SKC,0.00,WeatherDisplay:10.37,2013-09-25 07:02:00,
2013-09-25 08:07:00,55.8,53.5,29.46,ENE,68,0.0,0.0,92,0.00,CLR,SKC,0.00,WeatherDisplay:10.37,2013-09-25 07:07:00,
2013-09-25 08:12:00,55.6,53.3,29.47,ENE,68,0.0,0.0,92,0.00,CLR,SKC,0.00,WeatherDisplay:10.37,2013-09-25 07:12:00,
2013-09-25 08:17:00,55.6,53.3,29.46,ENE,68,0.0,0.0,92,0.00,CLR,SKC,0.00,WeatherDisplay:10.37,2013-09-25 07:17:00,
2013-09-25 08:22:00,55.6,53.3,29.46,East,90,0.0,0.0,92,0.00,CLR,SKC,0.00,WeatherDisplay:10.37,2013-09-25 07:22:00,
2013-09-25 08:27:00,55.2,52.9,29.46,East,90,0.0,0.0,92,0.00,CLR,SKC,0.00,WeatherDisplay:10.37,2013-09-25 07:27:00,
2013-09-25 08:32:00,55.2,52.6,29.46,East,90,0.0,0.0,91,0.00,CLR,SKC,0.00,WeatherDisplay:10.37,2013-09-25 07:32:00,
2013-09-25 08:37:00,55.0,52.5,29.47,ENE,68,0.0,0.0,91,0.00,CLR,SKC,0.00,WeatherDisplay:10.37,2013-09-25 07:37:00,
2013-09-25 08:42:00,54.9,52.6,29.47,East,90,0.0,0.0,92,0.00,CLR,SKC,0.00,WeatherDisplay:10.37,2013-09-25 07:42:00,
2013-09-25 08:47:00,54.7,52.4,29.47,East,90,0.0,0.0,92,0.00,CLR,SKC,0.00,WeatherDisplay:10.37,2013-09-25 07:47:00,
2013-09-25 08:52:00,54.5,52.2,29.47,East,90,0.0,0.0,92,0.00,CLR,SKC,0.00,WeatherDisplay:10.37,2013-09-25 07:52:00,
2013-09-25 08:57:00,54.5,52.2,29.47,NE,45,0.0,0.0,92,0.00,CLR,SKC,0.00,WeatherDisplay:10.37,2013-09-25 07:57:00,
2013-09-25 09:02:00,54.5,52.2,29.47,East,90,0.0,0.0,92,0.00,CLR,SKC,0.00,WeatherDisplay:10.37,2013-09-25 08:02:00,
2013-09-25 09:07:00,54.3,52.0,29.47,East,90,0.0,0.0,92,0.00,CLR,SKC,0.00,WeatherDisplay:10.37,2013-09-25 08:07:00,
2013-09-25 09:12:00,54.3,52.0,29.47,East,90,0.0,0.0,92,0.00,CLR,SKC,0.00,WeatherDisplay:10.37,2013-09-25 08:12:00,
2013-09-25 09:18:00,54.3,52.0,29.47,ENE,68,0.0,0.0,92,0.00,CLR,SKC,0.00,WeatherDisplay:10.37,2013-09-25 08:18:00,
2013-09-25 09:23:00,54.3,52.0,29.47,ENE,68,0.0,0.0,92,0.00,CLR,SKC,0.00,WeatherDisplay:10.37,2013-09-25 08:23:00,
2013-09-25 09:28:00,54.5,52.2,29.47,ESE,112,0.0,0.0,92,0.00,CLR,SKC,0.00,WeatherDisplay:10.37,2013-09-25 08:28:00,
2013-09-25 09:33:00,54.7,52.4,29.48,ESE,112,0.0,0.0,92,0.00,CLR,SKC,0.00,WeatherDisplay:10.37,2013-09-25 08:33:00,
2013-09-25 09:38:00,54.7,52.4,29.48,ESE,112,0.0,0.0,92,0.00,CLR,SKC,0.00,WeatherDisplay:10.37,2013-09-25 08:38:00,
2013-09-25 09:43:00,54.9,52.6,29.48,ENE,68,0.0,0.0,92,0.00,CLR,SKC,0.00,WeatherDisplay:10.37,2013-09-25 08:43:00,
2013-09-25 09:48:00,54.9,52.6,29.48,ESE,112,0.0,0.0,92,0.00,CLR,SKC,0.00,WeatherDisplay:10.37,2013-09-25 08:48:00,
2013-09-25 09:53:00,54.9,52.6,29.48,East,90,0.0,0.0,92,0.00,CLR,SKC,0.00,WeatherDisplay:10.37,2013-09-25 08:53:00,
2013-09-25 09:58:00,55.0,52.5,29.48,ESE,112,0.0,0.0,91,0.00,CLR,SKC,0.00,WeatherDisplay:10.37,2013-09-25 08:58:00,
2013-09-25 10:03:00,55.0,52.5,29.49,SE,135,0.0,0.0,91,0.00,CLR,SKC,0.00,WeatherDisplay:10.37,2013-09-25 09:03:00,
2013-09-25 10:08:00,54.9,52.3,29.49,ESE,112,0.0,0.0,91,0.00,CLR,SKC,0.00,WeatherDisplay:10.37,2013-09-25 09:08:00,
2013-09-25 10:13:00,54.7,51.8,29.49,ESE,112,0.0,0.0,90,0.00,CLR,SKC,0.00,WeatherDisplay:10.37,2013-09-25 09:13:00,
2013-09-25 10:18:00,54.7,51.8,29.49,ESE,112,0.0,0.0,90,0.00,CLR,SKC,0.00,WeatherDisplay:10.37,2013-09-25 09:18:00,
2013-09-25 10:23:00,54.3,51.4,29.49,ESE,112,0.0,0.0,90,0.00,CLR,SKC,0.00,WeatherDisplay:10.37,2013-09-25 09:23:00,
2013-09-25 10:28:00,54.3,51.4,29.49,ESE,112,0.0,0.0,90,0.00,CLR,SKC,0.00,WeatherDisplay:10.37,2013-09-25 09:28:00,
2013-09-25 10:33:00,54.3,51.1,29.50,East,90,0.0,0.0,89,0.00,CLR,SKC,0.00,WeatherDisplay:10.37,2013-09-25 09:33:00,
2013-09-25 10:38:00,54.1,51.0,29.50,ESE,112,0.0,0.0,89,0.00,CLR,SKC,0.00,WeatherDisplay:10.37,2013-09-25 09:38:00,
2013-09-25 10:43:00,54.1,51.0,29.50,NE,45,0.0,0.0,89,0.00,CLR,SKC,0.00,WeatherDisplay:10.37,2013-09-25 09:43:00,
2013-09-25 10:48:00,54.1,51.0,29.50,East,90,0.0,0.0,89,0.00,CLR,SKC,0.00,WeatherDisplay:10.37,2013-09-25 09:48:00,
2013-09-25 10:53:00,54.1,50.7,29.50,ESE,112,0.0,0.0,88,0.00,CLR,SKC,0.00,WeatherDisplay:10.37,2013-09-25 09:53:00,
2013-09-25 10:58:00,54.1,50.7,29.50,NE,45,0.0,0.0,88,0.00,CLR,SKC,0.00,WeatherDisplay:10.37,2013-09-25 09:58:00,
2013-09-25 11:03:00,54.0,50.5,29.50,ESE,112,0.0,0.0,88,0.00,CLR,SKC,0.00,WeatherDisplay:10.37,2013-09-25 10:03:00,
2013-09-25 11:08:00,53.8,50.3,29.50,ESE,112,0.0,0.0,88,0.00,CLR,SKC,0.00,WeatherDisplay:10.37,2013-09-25 10:08:00,
2013-09-25 11:13:00,53.6,50.1,29.50,ESE,112,0.0,0.0,88,0.00,CLR,SKC,0.00,WeatherDisplay:10.37,2013-09-25 10:13:00,
2013-09-25 11:18:00,53.6,50.1,29.50,SE,135,0.0,0.0,88,0.00,CLR,SKC,0.00,WeatherDisplay:10.37,2013-09-25 10:18:00,
2013-09-25 11:23:00,53.4,50.0,29.50,ESE,112,0.0,0.0,88,0.00,CLR,SKC,0.00,WeatherDisplay:10.37,2013-09-25 10:23:00,
2013-09-25 11:28:00,53.4,50.0,29.50,ESE,112,0.0,0.0,88,0.00,CLR,SKC,0.00,WeatherDisplay:10.37,2013-09-25 10:28:00,
2013-09-25 11:33:00,53.4,50.0,29.51,ESE,112,0.0,0.0,88,0.00,CLR,SKC,0.00,WeatherDisplay:10.37,2013-09-25 10:33:00,
2013-09-25 11:38:00,53.4,50.0,29.51,ESE,112,0.0,0.0,88,0.00,CLR,SKC,0.00,WeatherDisplay:10.37,2013-09-25 10:38:00,
2013-09-25 11:43:00,53.4,50.0,29.51,ESE,112,0.0,0.0,88,0.00,CLR,SKC,0.00,WeatherDisplay:10.37,2013-09-25 10:43:00,
2013-09-25 11:48:00,53.4,50.0,29.51,East,90,0.0,0.0,88,0.00,CLR,SKC,0.00,WeatherDisplay:10.37,2013-09-25 10:48:00,
2013-09-25 11:53:00,53.4,50.0,29.51,ESE,112,0.0,0.0,88,0.00,CLR,SKC,0.00,WeatherDisplay:10.37,2013-09-25 10:53:00,
2013-09-25 11:58:00,53.4,50.0,29.52,SE,135,0.0,0.0,88,0.00,CLR,SKC,0.00,WeatherDisplay:10.37,2013-09-25 10:58:00,
2013-09-25 12:03:00,53.4,50.0,29.51,East,90,0.0,0.0,88,0.00,CLR,SKC,0.00,WeatherDisplay:10.37,2013-09-25 11:03:00,
2013-09-25 12:08:00,53.4,50.0,29.51,SE,135,0.0,0.0,88,0.00,CLR,SKC,0.00,WeatherDisplay:10.37,2013-09-25 11:08:00,
2013-09-25 12:13:00,53.4,50.0,29.51,ESE,112,0.0,0.0,88,0.00,CLR,SKC,0.00,WeatherDisplay:10.37,2013-09-25 11:13:00,
2013-09-25 12:18:00,53.4,50.0,29.51,SE,135,0.0,0.0,88,0.00,CLR,SKC,0.00,WeatherDisplay:10.37,2013-09-25 11:18:00,
2013-09-25 12:23:00,53.4,50.0,29.51,ESE,112,0.0,0.0,88,0.00,CLR,SKC,0.00,WeatherDisplay:10.37,2013-09-25 11:23:00,
2013-09-25 12:28:00,53.4,50.0,29.52,SE,135,0.0,0.0,88,0.00,CLR,SKC,0.00,WeatherDisplay:10.37,2013-09-25 11:28:00,
2013-09-25 12:33:00,53.6,49.8,29.52,East,90,0.0,0.0,87,0.00,CLR,SKC,0.00,WeatherDisplay:10.37,2013-09-25 11:33:00,
2013-09-25 12:38:00,53.8,50.0,29.52,ESE,112,0.0,0.0,87,0.00,CLR,SKC,0.00,WeatherDisplay:10.37,2013-09-25 11:38:00,
2013-09-25 12:43:00,53.8,50.0,29.52,ESE,112,0.0,0.0,87,0.00,CLR,SKC,0.00,WeatherDisplay:10.37,2013-09-25 11:43:00,
2013-09-25 12:48:00,53.8,50.0,29.52,East,90,0.0,0.0,87,0.00,CLR,SKC,0.00,WeatherDisplay:10.37,2013-09-25 11:48:00,
2013-09-25 12:53:00,53.8,50.0,29.52,ESE,112,0.0,0.0,87,0.00,CLR,SKC,0.00,WeatherDisplay:10.37,2013-09-25 11:53:00,
2013-09-25 12:58:00,53.8,50.0,29.52,ESE,112,0.0,0.0,87,0.00,CLR,SKC,0.00,WeatherDisplay:10.37,2013-09-25 11:58:00,
2013-09-25 13:03:00,53.8,49.7,29.52,East,90,0.0,0.0,86,0.00,CLR,SKC,0.00,WeatherDisplay:10.37,2013-09-25 12:03:00,
2013-09-25 13:08:00,53.6,49.5,29.52,ESE,112,0.0,0.0,86,0.00,CLR,SKC,0.00,WeatherDisplay:10.37,2013-09-25 12:08:00,
2013-09-25 13:13:00,53.8,49.7,29.52,ENE,68,0.0,0.0,86,0.00,CLR,SKC,0.00,WeatherDisplay:10.37,2013-09-25 12:13:00,
2013-09-25 13:18:00,53.8,49.7,29.52,East,90,0.0,0.0,86,0.00,CLR,SKC,0.00,WeatherDisplay:10.37,2013-09-25 12:18:00,
2013-09-25 13:23:00,53.4,49.3,29.53,NE,45,0.0,0.0,86,0.00,CLR,SKC,0.00,WeatherDisplay:10.37,2013-09-25 12:23:00,
2013-09-25 13:27:00,53.4,49.3,29.52,ESE,112,0.0,0.0,86,0.00,CLR,SKC,0.00,WeatherDisplay:10.37,2013-09-25 12:27:00,
2013-09-25 13:32:00,53.4,49.3,29.53,East,90,0.0,0.0,86,0.00,CLR,SKC,0.00,WeatherDisplay:10.37,2013-09-25 12:32:00,
2013-09-25 13:37:00,53.4,49.0,29.52,SE,135,0.0,0.0,85,0.00,CLR,SKC,0.00,WeatherDisplay:10.37,2013-09-25 12:37:00,
2013-09-25 13:42:00,53.4,49.0,29.53,SE,135,0.0,0.0,85,0.00,CLR,SKC,0.00,WeatherDisplay:10.37,2013-09-25 12:42:00,
2013-09-25 13:47:00,53.4,49.0,29.53,ESE,112,0.0,0.0,85,0.00,CLR,SKC,0.00,WeatherDisplay:10.37,2013-09-25 12:47:00,
2013-09-25 13:52:00,53.4,49.0,29.53,ESE,112,0.0,0.0,85,0.00,CLR,SKC,0.00,WeatherDisplay:10.37,2013-09-25 12:52:00,
2013-09-25 13:57:00,53.4,49.0,29.52,East,90,0.0,0.0,85,0.00,CLR,SKC,0.00,WeatherDisplay:10.37,2013-09-25 12:57:00,
2013-09-25 14:02:00,53.4,49.0,29.52,ESE,112,0.0,0.0,85,0.00,CLR,SKC,0.00,WeatherDisplay:10.37,2013-09-25 13:02:00,
2013-09-25 14:07:00,53.4,49.0,29.52,ESE,112,0.0,0.0,85,0.00,CLR,SKC,0.00,WeatherDisplay:10.37,2013-09-25 13:07:00,
2013-09-25 14:12:00,53.4,49.0,29.52,East,90,0.0,0.0,85,0.00,CLR,SKC,0.00,WeatherDisplay:10.37,2013-09-25 13:12:00,
2013-09-25 14:17:00,53.4,49.0,29.52,ESE,112,0.0,0.0,85,0.00,CLR,SKC,0.00,WeatherDisplay:10.37,2013-09-25 13:17:00,
2013-09-25 14:22:00,53.4,49.0,29.53,East,90,0.0,0.0,85,0.00,CLR,SKC,0.00,WeatherDisplay:10.37,2013-09-25 13:22:00,
2013-09-25 14:27:00,53.4,49.0,29.53,SE,135,0.0,0.0,85,0.00,CLR,SKC,0.00,WeatherDisplay:10.37,2013-09-25 13:27:00,
2013-09-25 14:32:00,53.4,49.0,29.53,East,90,0.0,0.0,85,0.00,CLR,SKC,0.00,WeatherDisplay:10.37,2013-09-25 13:32:00,
2013-09-25 14:37:00,53.4,49.0,29.53,ESE,112,0.0,0.0,85,0.00,CLR,SKC,0.00,WeatherDisplay:10.37,2013-09-25 13:37:00,
2013-09-25 14:42:00,53.2,49.2,29.53,East,90,0.0,0.0,86,0.00,CLR,SKC,0.00,WeatherDisplay:10.37,2013-09-25 13:42:00,
2013-09-25 14:47:00,53.2,49.2,29.54,ESE,112,0.0,0.0,86,0.00,CLR,SKC,0.00,WeatherDisplay:10.37,2013-09-25 13:47:00,
2013-09-25 14:52:00,52.9,48.8,29.54,ESE,112,0.0,0.0,86,0.00,CLR,SKC,0.00,WeatherDisplay:10.37,2013-09-25 13:52:00,
2013-09-25 14:57:00,52.9,49.1,29.53,ESE,112,0.0,0.0,87,0.00,CLR,SKC,0.00,WeatherDisplay:10.37,2013-09-25 13:57:00,
2013-09-25 15:02:00,52.7,49.2,29.53,East,90,0.0,0.0,88,0.00,CLR,SKC,0.00,WeatherDisplay:10.37,2013-09-25 14:02:00,
2013-09-25 15:07:00,52.5,49.1,29.53,NE,45,0.0,0.0,88,0.00,CLR,SKC,0.00,WeatherDisplay:10.37,2013-09-25 14:07:00,
2013-09-25 15:12:00,52.5,49.4,29.53,ESE,112,0.0,0.0,89,0.00,CLR,SKC,0.00,WeatherDisplay:10.37,2013-09-25 14:12:00,
2013-09-25 15:17:00,52.3,49.2,29.53,ESE,112,0.0,0.0,89,0.00,CLR,SKC,0.00,WeatherDisplay:10.37,2013-09-25 14:17:00,
2013-09-25 15:22:00,52.3,49.2,29.54,East,90,0.0,0.0,89,0.00,CLR,SKC,0.00,WeatherDisplay:10.37,2013-09-25 14:22:00,
2013-09-25 15:27:00,52.2,49.0,29.54,East,90,0.0,0.0,89,0.00,CLR,SKC,0.00,WeatherDisplay:10.37,2013-09-25 14:27:00,
2013-09-25 15:32:00,52.2,49.0,29.54,ESE,112,0.0,0.0,89,0.00,CLR,SKC,0.00,WeatherDisplay:10.37,2013-09-25 14:32:00,
2013-09-25 15:37:00,52.0,49.1,29.54,East,90,0.0,0.0,90,0.00,CLR,SKC,0.00,WeatherDisplay:10.37,2013-09-25 14:37:00,
2013-09-25 15:42:00,52.3,49.5,29.54,ESE,112,0.0,0.0,90,0.00,CLR,SKC,0.00,WeatherDisplay:10.37,2013-09-25 14:42:00,
2013-09-25 15:47:00,52.3,49.5,29.54,ESE,112,0.0,0.0,90,0.00,CLR,SKC,0.00,WeatherDisplay:10.37,2013-09-25 14:47:00,
2013-09-25 15:52:00,52.3,49.2,29.54,East,90,0.0,0.0,89,0.00,CLR,SKC,0.00,WeatherDisplay:10.37,2013-09-25 14:52:00,
2013-09-25 15:57:00,52.5,49.4,29.54,ESE,112,0.0,0.0,89,0.00,CLR,SKC,0.00,WeatherDisplay:10.37,2013-09-25 14:57:00,
2013-09-25 16:02:00,52.5,49.4,29.54,East,90,0.0,0.0,89,0.00,CLR,SKC,0.00,WeatherDisplay:10.37,2013-09-25 15:02:00,
2013-09-25 16:07:00,52.7,49.5,29.54,ESE,112,0.0,0.0,89,0.00,CLR,SKC,0.00,WeatherDisplay:10.37,2013-09-25 15:07:00,
2013-09-25 16:12:00,52.9,49.7,29.54,ENE,68,0.0,0.0,89,0.00,CLR,SKC,0.00,WeatherDisplay:10.37,2013-09-25 15:12:00,
2013-09-25 16:17:00,52.9,49.4,29.54,SE,135,0.0,0.0,88,0.00,CLR,SKC,0.00,WeatherDisplay:10.37,2013-09-25 15:17:00,
2013-09-25 16:22:00,52.9,49.4,29.53,SE,135,0.0,0.0,88,0.00,CLR,SKC,0.00,WeatherDisplay:10.37,2013-09-25 15:22:00,
2013-09-25 16:27:00,52.9,49.4,29.54,ESE,112,0.0,0.0,88,0.00,CLR,SKC,0.00,WeatherDisplay:10.37,2013-09-25 15:27:00,
2013-09-25 16:32:00,52.9,49.1,29.54,ESE,112,0.0,0.0,87,0.00,CLR,SKC,0.00,WeatherDisplay:10.37,2013-09-25 15:32:00,
2013-09-25 16:37:00,52.9,48.8,29.54,ESE,112,0.0,0.0,86,0.00,CLR,SKC,0.00,WeatherDisplay:10.37,2013-09-25 15:37:00,
2013-09-25 16:42:00,53.2,49.5,29.54,ESE,112,0.0,0.0,87,0.00,CLR,SKC,0.00,WeatherDisplay:10.37,2013-09-25 15:42:00,
2013-09-25 16:47:00,53.2,49.2,29.54,East,90,0.0,0.0,86,0.00,CLR,SKC,0.00,WeatherDisplay:10.37,2013-09-25 15:47:00,
2013-09-25 16:52:00,53.4,49.3,29.54,ESE,112,0.0,0.0,86,0.00,CLR,SKC,0.00,WeatherDisplay:10.37,2013-09-25 15:52:00,
2013-09-25 16:57:00,53.8,49.4,29.54,ESE,112,0.0,0.0,85,0.00,CLR,SKC,0.00,WeatherDisplay:10.37,2013-09-25 15:57:00,
2013-09-25 17:02:00,54.0,49.6,29.54,ESE,112,0.0,0.0,85,0.00,CLR,SKC,0.00,WeatherDisplay:10.37,2013-09-25 16:02:00,
2013-09-25 17:07:00,54.1,49.4,29.54,ESE,112,0.0,0.0,84,0.00,CLR,SKC,0.00,WeatherDisplay:10.37,2013-09-25 16:07:00,
2013-09-25 17:12:00,54.3,49.6,29.54,SE,135,0.0,0.0,84,0.00,CLR,SKC,0.00,WeatherDisplay:10.37,2013-09-25 16:12:00,
2013-09-25 17:17:00,54.3,48.9,29.54,ENE,68,0.0,0.0,82,0.00,CLR,SKC,0.00,WeatherDisplay:10.37,2013-09-25 16:17:00,
2013-09-25 17:22:00,54.5,48.8,29.54,ESE,112,0.0,0.0,81,0.00,CLR,SKC,0.00,WeatherDisplay:10.37,2013-09-25 16:22:00,
2013-09-25 17:27:00,54.5,48.8,29.54,ESE,112,0.0,0.0,81,0.00,CLR,SKC,0.00,WeatherDisplay:10.37,2013-09-25 16:27:00,
2013-09-25 17:32:00,54.7,48.6,29.54,SE,135,0.0,0.0,80,0.00,CLR,SKC,0.00,WeatherDisplay:10.37,2013-09-25 16:32:00,
2013-09-25 17:37:00,54.7,48.3,29.54,ESE,112,0.0,0.0,79,0.00,CLR,SKC,0.00,WeatherDisplay:10.37,2013-09-25 16:37:00,
2013-09-25 17:42:00,54.9,48.5,29.53,SE,135,0.0,0.0,79,0.00,CLR,SKC,0.00,WeatherDisplay:10.37,2013-09-25 16:42:00,
2013-09-25 17:47:00,55.0,48.6,29.54,ESE,112,0.0,0.0,79,0.00,CLR,SKC,0.00,WeatherDisplay:10.37,2013-09-25 16:47:00,
2013-09-25 17:52:00,55.0,48.6,29.54,SE,135,0.0,0.0,79,0.00,CLR,SKC,0.00,WeatherDisplay:10.37,2013-09-25 16:52:00,
2013-09-25 17:57:00,54.9,48.5,29.54,ESE,112,0.0,0.0,79,0.00,CLR,SKC,0.00,WeatherDisplay:10.37,2013-09-25 16:57:00,
2013-09-25 18:02:00,54.7,48.0,29.54,ESE,112,0.0,0.0,78,0.00,CLR,SKC,0.00,WeatherDisplay:10.37,2013-09-25 17:02:00,
2013-09-25 18:07:00,54.5,47.8,29.54,ENE,68,0.0,0.0,78,0.00,CLR,SKC,0.00,WeatherDisplay:10.37,2013-09-25 17:07:00,
2013-09-25 18:12:00,54.3,47.3,29.55,East,90,0.0,0.0,77,0.00,CLR,SKC,0.00,WeatherDisplay:10.37,2013-09-25 17:12:00,
2013-09-25 18:17:00,54.1,47.1,29.55,ESE,112,0.0,0.0,77,0.00,CLR,SKC,0.00,WeatherDisplay:10.37,2013-09-25 17:17:00,
2013-09-25 18:22:00,54.0,46.9,29.55,ESE,112,0.0,0.0,77,0.00,CLR,SKC,0.00,WeatherDisplay:10.37,2013-09-25 17:22:00,
2013-09-25 18:27:00,53.8,46.7,29.55,SE,135,0.0,0.0,77,0.00,CLR,SKC,0.00,WeatherDisplay:10.37,2013-09-25 17:27:00,
2013-09-25 18:33:00,53.8,46.7,29.55,ESE,112,0.0,0.0,77,0.00,CLR,SKC,0.00,WeatherDisplay:10.37,2013-09-25 17:33:00,
2013-09-25 18:38:00,53.4,46.4,29.55,SE,135,0.0,0.0,77,0.00,CLR,SKC,0.00,WeatherDisplay:10.37,2013-09-25 17:38:00,
2013-09-25 18:43:00,53.4,46.4,29.55,East,90,0.0,0.0,77,0.00,CLR,SKC,0.00,WeatherDisplay:10.37,2013-09-25 17:43:00,
2013-09-25 18:48:00,53.4,46.4,29.55,SE,135,0.0,0.0,77,0.00,CLR,SKC,0.00,WeatherDisplay:10.37,2013-09-25 17:48:00,
2013-09-25 18:53:00,53.4,46.4,29.55,ESE,112,0.0,0.0,77,0.00,CLR,SKC,0.00,WeatherDisplay:10.37,2013-09-25 17:53:00,
2013-09-25 18:58:00,53.2,46.2,29.56,SE,135,0.0,0.0,77,0.00,CLR,SKC,0.00,WeatherDisplay:10.37,2013-09-25 17:58:00,
2013-09-25 19:03:00,53.2,46.2,29.56,East,90,0.0,0.0,77,0.00,CLR,SKC,0.00,WeatherDisplay:10.37,2013-09-25 18:03:00,
2013-09-25 19:08:00,53.2,46.6,29.56,NE,45,0.0,0.0,78,0.00,CLR,SKC,0.00,WeatherDisplay:10.37,2013-09-25 18:08:00,
2013-09-25 19:13:00,53.2,46.6,29.56,ESE,112,0.0,0.0,78,0.00,CLR,SKC,0.00,WeatherDisplay:10.37,2013-09-25 18:13:00,
2013-09-25 19:18:00,53.1,46.4,29.56,ESE,112,0.0,0.0,78,0.00,CLR,SKC,0.00,WeatherDisplay:10.37,2013-09-25 18:18:00,
2013-09-25 19:23:00,52.9,46.2,29.56,ESE,112,0.0,0.0,78,0.00,CLR,SKC,0.00,WeatherDisplay:10.37,2013-09-25 18:23:00,
2013-09-25 19:28:00,52.9,46.5,29.57,SE,135,0.0,0.0,79,0.00,CLR,SKC,0.00,WeatherDisplay:10.37,2013-09-25 18:28:00,
2013-09-25 19:33:00,52.9,46.5,29.57,ESE,112,0.0,0.0,79,0.00,CLR,SKC,0.00,WeatherDisplay:10.37,2013-09-25 18:33:00,
2013-09-25 19:38:00,52.9,46.5,29.57,ESE,112,0.0,0.0,79,0.00,CLR,SKC,0.00,WeatherDisplay:10.37,2013-09-25 18:38:00,
2013-09-25 19:43:00,52.9,46.5,29.57,ESE,112,0.0,0.0,79,0.00,CLR,SKC,0.00,WeatherDisplay:10.37,2013-09-25 18:43:00,
2013-09-25 19:48:00,52.9,46.5,29.57,SE,135,0.0,0.0,79,0.00,CLR,SKC,0.00,WeatherDisplay:10.37,2013-09-25 18:48:00,
2013-09-25 19:53:00,52.7,46.4,29.57,East,90,0.0,0.0,79,0.00,CLR,SKC,0.00,WeatherDisplay:10.37,2013-09-25 18:53:00,
2013-09-25 19:58:00,52.7,46.4,29.57,ESE,112,0.0,0.0,79,0.00,CLR,SKC,0.00,WeatherDisplay:10.37,2013-09-25 18:58:00,
2013-09-25 20:03:00,52.7,46.4,29.57,ESE,112,0.0,0.0,79,0.00,CLR,SKC,0.00,WeatherDisplay:10.37,2013-09-25 19:03:00,
2013-09-25 20:08:00,52.7,46.4,29.57,ESE,112,0.0,0.0,79,0.00,CLR,SKC,0.00,WeatherDisplay:10.37,2013-09-25 19:08:00,
2013-09-25 20:13:00,52.7,46.4,29.57,ESE,112,0.0,0.0,79,0.00,CLR,SKC,0.00,WeatherDisplay:10.37,2013-09-25 19:13:00,
2013-09-25 20:18:00,52.5,46.5,29.58,ESE,112,0.0,0.0,80,0.00,CLR,SKC,0.00,WeatherDisplay:10.37,2013-09-25 19:18:00,
2013-09-25 20:23:00,52.5,46.5,29.58,East,90,0.0,0.0,80,0.00,CLR,SKC,0.00,WeatherDisplay:10.37,2013-09-25 19:23:00,
2013-09-25 20:28:00,52.5,46.5,29.58,East,90,0.0,0.0,80,0.00,CLR,SKC,0.00,WeatherDisplay:10.37,2013-09-25 19:28:00,
2013-09-25 20:33:00,52.5,46.5,29.58,ENE,68,0.0,0.0,80,0.00,CLR,SKC,0.00,WeatherDisplay:10.37,2013-09-25 19:33:00,
2013-09-25 20:38:00,52.5,46.5,29.58,ESE,112,0.0,0.0,80,0.00,CLR,SKC,0.00,WeatherDisplay:10.37,2013-09-25 19:38:00,
2013-09-25 20:43:00,52.3,46.4,29.58,ESE,112,0.0,0.0,80,0.00,CLR,SKC,0.00,WeatherDisplay:10.37,2013-09-25 19:43:00,
2013-09-25 20:48:00,52.3,46.4,29.58,ESE,112,0.0,0.0,80,0.00,CLR,SKC,0.00,WeatherDisplay:10.37,2013-09-25 19:48:00,
2013-09-25 20:53:00,52.3,46.4,29.58,East,90,0.0,0.0,80,0.00,CLR,SKC,0.00,WeatherDisplay:10.37,2013-09-25 19:53:00,
2013-09-25 20:58:00,52.3,46.4,29.59,East,90,0.0,0.0,80,0.00,CLR,SKC,0.00,WeatherDisplay:10.37,2013-09-25 19:58:00,
2013-09-25 21:03:00,52.3,46.4,29.59,ESE,112,0.0,0.0,80,0.00,CLR,SKC,0.00,WeatherDisplay:10.37,2013-09-25 20:03:00,
2013-09-25 21:08:00,52.3,46.4,29.59,East,90,0.0,0.0,80,0.00,CLR,SKC,0.00,WeatherDisplay:10.37,2013-09-25 20:08:00,
2013-09-25 21:13:00,52.3,46.4,29.59,SE,135,0.0,0.0,80,0.00,CLR,SKC,0.00,WeatherDisplay:10.37,2013-09-25 20:13:00,
2013-09-25 21:18:00,52.2,46.5,29.59,ENE,68,0.0,0.0,81,0.00,CLR,SKC,0.00,WeatherDisplay:10.37,2013-09-25 20:18:00,
2013-09-25 21:23:00,52.2,46.5,29.59,SE,135,0.0,0.0,81,0.00,CLR,SKC,0.00,WeatherDisplay:10.37,2013-09-25 20:23:00,
2013-09-25 21:28:00,52.2,46.5,29.59,ESE,112,0.0,0.0,81,0.00,CLR,SKC,0.00,WeatherDisplay:10.37,2013-09-25 20:28:00,
2013-09-25 21:33:00,52.0,46.3,29.59,East,90,0.0,0.0,81,0.00,CLR,SKC,0.00,WeatherDisplay:10.37,2013-09-25 20:33:00,
2013-09-25 21:39:00,52.0,46.3,29.59,ESE,112,0.0,0.0,81,0.00,CLR,SKC,0.00,WeatherDisplay:10.37,2013-09-25 20:39:00,
2013-09-25 21:44:00,52.0,46.3,29.59,ENE,68,0.0,0.0,81,0.00,CLR,SKC,0.00,WeatherDisplay:10.37,2013-09-25 20:44:00,
2013-09-25 21:49:00,51.8,46.2,29.59,ESE,112,0.0,0.0,81,0.00,CLR,SKC,0.00,WeatherDisplay:10.37,2013-09-25 20:49:00,
2013-09-25 21:54:00,51.8,46.5,29.59,ESE,112,0.0,0.0,82,0.00,CLR,SKC,0.00,WeatherDisplay:10.37,2013-09-25 20:54:00,
2013-09-25 21:59:00,51.8,46.5,29.59,East,90,0.0,0.0,82,0.00,CLR,SKC,0.00,WeatherDisplay:10.37,2013-09-25 20:59:00,
2013-09-25 22:04:00,51.6,46.3,29.59,ESE,112,0.0,0.0,82,0.00,CLR,SKC,0.00,WeatherDisplay:10.37,2013-09-25 21:04:00,
2013-09-25 22:09:00,51.6,46.3,29.59,ESE,112,0.0,0.0,82,0.00,CLR,SKC,0.00,WeatherDisplay:10.37,2013-09-25 21:09:00,
2013-09-25 22:14:00,51.6,46.0,29.59,ESE,112,0.0,0.0,81,0.00,CLR,SKC,0.00,WeatherDisplay:10.37,2013-09-25 21:14:00,
2013-09-25 22:19:00,51.6,46.0,29.59,East,90,0.0,0.0,81,0.00,CLR,SKC,0.00,WeatherDisplay:10.37,2013-09-25 21:19:00,
2013-09-25 22:24:00,51.6,46.0,29.60,SE,135,0.0,0.0,81,0.00,CLR,SKC,0.00,WeatherDisplay:10.37,2013-09-25 21:24:00,
2013-09-25 22:29:00,51.4,45.8,29.60,ENE,68,0.0,0.0,81,0.00,CLR,SKC,0.00,WeatherDisplay:10.37,2013-09-25 21:29:00,
2013-09-25 22:34:00,51.4,45.8,29.60,ESE,112,0.0,0.0,81,0.00,CLR,SKC,0.00,WeatherDisplay:10.37,2013-09-25 21:34:00,
2013-09-25 22:39:00,51.1,45.8,29.60,ESE,112,0.0,0.0,82,0.00,CLR,SKC,0.00,WeatherDisplay:10.37,2013-09-25 21:39:00,
2013-09-25 22:44:00,50.7,45.4,29.60,ESE,112,0.0,0.0,82,0.00,CLR,SKC,0.00,WeatherDisplay:10.37,2013-09-25 21:44:00,
2013-09-25 22:49:00,50.7,45.4,29.60,East,90,0.0,0.0,82,0.00,CLR,SKC,0.00,WeatherDisplay:10.37,2013-09-25 21:49:00,
2013-09-25 22:54:00,50.2,44.9,29.60,East,90,0.0,0.0,82,0.00,CLR,SKC,0.00,WeatherDisplay:10.37,2013-09-25 21:54:00,
2013-09-25 22:59:00,49.8,44.9,29.60,ESE,112,0.0,0.0,83,0.00,CLR,SKC,0.00,WeatherDisplay:10.37,2013-09-25 21:59:00,
2013-09-25 23:04:00,49.6,44.7,29.60,ESE,112,0.0,0.0,83,0.00,CLR,SKC,0.00,WeatherDisplay:10.37,2013-09-25 22:04:00,
2013-09-25 23:09:00,49.3,44.3,29.60,East,90,0.0,0.0,83,0.00,CLR,SKC,0.00,WeatherDisplay:10.37,2013-09-25 22:09:00,
2013-09-25 23:14:00,48.9,44.0,29.60,ESE,112,0.0,0.0,83,0.00,CLR,SKC,0.00,WeatherDisplay:10.37,2013-09-25 22:14:00,
2013-09-25 23:19:00,48.7,44.1,29.60,ESE,112,0.0,0.0,84,0.00,CLR,SKC,0.00,WeatherDisplay:10.37,2013-09-25 22:19:00,
2013-09-25 23:24:00,48.7,44.1,29.60,ESE,112,0.0,0.0,84,0.00,CLR,SKC,0.00,WeatherDisplay:10.37,2013-09-25 22:24:00,
2013-09-25 23:29:00,48.6,43.9,29.61,ENE,68,0.0,0.0,84,0.00,CLR,SKC,0.00,WeatherDisplay:10.37,2013-09-25 22:29:00,
2013-09-25 23:34:00,48.4,43.8,29.60,ENE,68,0.0,0.0,84,0.00,CLR,SKC,0.00,WeatherDisplay:10.37,2013-09-25 22:34:00,
2013-09-25 23:39:00,48.4,43.8,29.60,ENE,68,0.0,0.0,84,0.00,CLR,SKC,0.00,WeatherDisplay:10.37,2013-09-25 22:39:00,
2013-09-25 23:44:00,48.0,43.4,29.60,ENE,68,0.0,0.0,84,0.00,CLR,SKC,0.00,WeatherDisplay:10.37,2013-09-25 22:44:00,
2013-09-25 23:49:00,48.0,43.4,29.61,ESE,112,0.0,0.0,84,0.00,CLR,SKC,0.00,WeatherDisplay:10.37,2013-09-25 22:49:00,
2013-09-25 23:54:00,47.8,43.2,29.61,ESE,112,0.0,0.0,84,0.00,CLR,SKC,0.00,WeatherDisplay:10.37,2013-09-25 22:54:00,
2013-09-25 23:59:00,47.7,43.4,29.61,ENE,68,0.0,0.0,85,0.00,CLR,SKC,0.00,WeatherDisplay:10.37,2013-09-25 22:59:00,